QPF
0.00 0.00 0.00 0.00 0.00 0.00 0.00 0.00 0.00 0.00 0.00 0.00 0.01 0.00 0.00 0.00 0.01 0.02 0.00 0.00 0.00 0.00 0.01 0.02 0.02 0.01 0.01 0.01 0.01 0.01 0.02 0.03 0.02 0.02 0.02 0.04 0.06 0.04 0.02 0.03 0.02 0.02 0.03 0.04
0.00 0.00 0.00 0.00 0.00 0.00 0.00 0.00 0.00 0.00 0.00 0.00 0.01 0.00 0.00 0.00 0.01 0.02 0.01 0.00 0.00 0.00 0.01 0.01 0.02 0.01 0.00 0.01 0.01 0.01 0.02 0.02 0.02 0.02 0.02 0.03 0.03 0.03 0.03 0.04 0.05 0.04 0.05 0.05
0.00 0.00 0.00 0.00 0.00 0.00 0.00 0.00 0.00 0.00 0.00 0.00 0.01 0.01 0.00 0.00 0.00 0.02 0.02 0.00 0.00 0.01 0.01 0.01 0.02 0.01 0.00 0.00 0.01 0.01 0.01 0.02 0.02 0.03 0.03 0.04 0.04 0.04 0.05 0.07 0.07 0.07 0.05 0.05
0.00 0.00 0.00 0.00 0.00 0.00 0.00 0.00 0.00 0.00 0.01 0.00 0.00 0.02 0.01 0.01 0.00 0.01 0.04 0.01 0.00 0.00 0.00 0.01 0.01 0.01 0.01 0.00 0.00 0.01 0.01 0.02 0.03 0.04 0.04 0.05 0.06 0.06 0.07 0.08 0.08 0.08 0.05 0.03
0.00 0.01 0.00 0.00 0.00 0.00 0.00 0.00 0.00 0.00 0.00 0.00 0.00 0.01 0.02 0.02 0.01 0.00 0.01 0.01 0.00 0.00 0.00 0.01 0.02 0.02 0.02 0.01 0.00 0.01 0.01 0.02 0.03 0.04 0.04 0.05 0.06 0.07 0.08 0.10 0.11 0.08 0.06 0.05
0.00 0.00 0.00 0.00 0.00 0.00 0.00 0.00 0.01 0.02 0.00 0.00 0.00 0.01 0.01 0.03 0.02 0.01 0.01 0.00 0.00 0.00 0.00 0.00 0.01 0.02 0.03 0.03 0.01 0.01 0.01 0.02 0.03 0.03 0.03 0.04 0.05 0.06 0.08 0.11 0.12 0.07 0.06 0.06
0.00 0.00 0.00 0.00 0.00 0.00 0.00 0.02 0.03 0.05 0.02 0.01 0.00 0.01 0.00 0.00 0.01 0.00 0.00 0.00 0.00 0.00 0.00 0.00 0.00 0.00 0.01 0.01 0.01 0.01 0.01 0.02 0.03 0.03 0.03 0.03 0.04 0.05 0.08 0.09 0.10 0.07 0.05 0.06
0.00 0.00 0.00 0.00 0.00 0.00 0.00 0.01 0.02 0.02 0.03 0.01 0.01 0.01 0.01 0.00 0.00 0.00 0.00 0.00 0.00 0.00 0.00 0.00 0.02 0.01 0.01 0.01 0.00 0.00 0.00 0.01 0.01 0.02 0.03 0.03 0.04 0.05 0.06 0.07 0.07 0.08 0.06 0.05
0.00 0.00 0.00 0.00 0.00 0.00 0.00 0.00 0.00 0.01 0.01 0.02 0.01 0.01 0.00 0.00 0.00 0.00 0.01 0.01 0.00 0.00 0.00 0.01 0.04 0.06 0.06 0.03 0.00 0.00 0.00 0.01 0.01 0.01 0.02 0.03 0.04 0.05 0.05 0.06 0.07 0.08 0.08 0.08
0.00 0.00 0.00 0.00 0.00 0.00 0.00 0.00 0.00 0.01 0.01 0.02 0.02 0.02 0.01 0.00 0.01 0.03 0.02 0.01 0.00 0.01 0.01 0.01 0.01 0.04 0.05 0.02 0.01 0.00 0.00 0.01 0.01 0.01 0.01 0.02 0.03 0.04 0.06 0.06 0.06 0.05 0.05 0.05
0.00 0.00 0.00 0.00 0.00 0.00 0.00 0.00 0.00 0.00 0.01 0.01 0.01 0.01 0.01 0.00 0.01 0.01 0.01 0.00 0.00 0.02 0.03 0.02 0.01 0.02 0.02 0.01 0.01 0.01 0.01 0.01 0.01 0.02 0.02 0.03 0.03 0.03 0.04 0.05 0.04 0.05 0.05 0.05
0.00 0.00 0.00 0.00 0.00 0.00 0.00 0.00 0.00 0.00 0.00 0.00 0.01 0.00 0.00 0.00 0.01 0.02 0.02 0.00 0.01 0.07 0.09 0.06 0.02 0.02 0.03 0.01 0.01 0.01 0.01 0.01 0.01 0.02 0.02 0.02 0.03 0.04 0.04 0.05 0.06 0.07 0.06 0.05
0.00 0.00 0.00 0.00 0.00 0.00 0.00 0.00 0.00 0.00 0.00 0.01 0.01 0.00 0.00 0.00 0.00 0.00 0.00 0.00 0.01 0.03 0.03 0.02 0.01 0.01 0.01 0.02 0.01 0.01 0.01 0.01 0.01 0.02 0.02 0.02 0.02 0.03 0.04 0.06 0.07 0.07 0.06 0.05
0.00 0.00 0.00 0.01 0.02 0.00 0.00 0.00 0.00 0.00 0.00 0.01 0.00 0.00 0.00 0.00 0.00 0.01 0.01 0.00 0.00 0.00 0.00 0.00 0.01 0.01 0.01 0.01 0.01 0.01 0.01 0.01 0.01 0.02 0.03 0.03 0.03 0.04 0.05 0.07 0.08 0.09 0.09 0.07
0.00 0.00 0.00 0.00 0.00 0.00 0.00 0.00 0.00 0.00 0.00 0.00 0.00 0.00 0.00 0.00 0.00 0.01 0.01 0.00 0.00 0.00 0.00 0.01 0.02 0.02 0.02 0.02 0.01 0.01 0.01 0.01 0.02 0.03 0.05 0.05 0.05 0.05 0.05 0.06 0.08 0.08 0.07 0.05
0.00 0.00 0.00 0.00 0.00 0.00 0.00 0.00 0.00 0.00 0.00 0.00 0.00 0.00 0.01 0.01 0.01 0.01 0.01 0.00 0.00 0.00 0.01 0.02 0.02 0.03 0.03 0.02 0.02 0.02 0.02 0.02 0.02 0.03 0.04 0.06 0.05 0.05 0.05 0.06 0.06 0.07 0.06 0.06
0.00 0.00 0.00 0.00 0.00 0.00 0.00 0.00 0.00 0.00 0.00 0.00 0.00 0.00 0.00 0.01 0.01 0.01 0.01 0.00 0.01 0.01 0.01 0.02 0.02 0.02 0.02 0.02 0.02 0.02 0.02 0.01 0.02 0.03 0.05 0.07 0.06 0.07 0.07 0.08 0.09 0.09 0.07 0.07
0.00 0.00 0.00 0.00 0.00 0.00 0.00 0.00 0.00 0.00 0.00 0.00 0.00 0.00 0.00 0.00 0.01 0.01 0.01 0.01 0.01 0.01 0.01 0.01 0.02 0.03 0.02 0.01 0.02 0.02 0.02 0.02 0.02 0.02 0.03 0.04 0.05 0.06 0.06 0.07 0.07 0.06 0.05 0.05
0.00 0.00 0.00 0.00 0.00 0.00 0.00 0.00 0.00 0.00 0.00 0.00 0.00 0.00 0.00 0.00 0.01 0.01 0.01 0.00 0.01 0.01 0.01 0.01 0.01 0.01 0.02 0.02 0.03 0.03 0.03 0.03 0.02 0.02 0.02 0.02 0.04 0.05 0.05 0.05 0.04 0.04 0.04 0.04
0.00 0.00 0.00 0.00 0.00 0.01 0.01 0.01 0.00 0.01 0.01 0.00 0.00 0.00 0.00 0.01 0.02 0.02 0.01 0.01 0.01 0.01 0.01 0.01 0.01 0.01 0.02 0.02 0.03 0.03 0.03 0.02 0.02 0.03 0.03 0.03 0.02 0.04 0.05 0.05 0.05 0.05 0.05 0.05
0.00 0.00 0.00 0.00 0.01 0.02 0.01 0.01 0.01 0.02 0.03 0.01 0.00 0.00 0.01 0.01 0.01 0.03 0.03 0.01 0.01 0.01 0.01 0.01 0.01 0.01 0.02 0.02 0.03 0.03 0.03 0.03 0.03 0.04 0.04 0.04 0.03 0.04 0.05 0.05 0.06 0.06 0.06 0.05
0.01 0.01 0.01 0.01 0.02 0.03 0.01 0.00 0.01 0.02 0.01 0.01 0.01 0.01 0.01 0.01 0.02 0.03 0.03 0.02 0.01 0.01 0.01 0.01 0.01 0.01 0.02 0.01 0.02 0.04 0.04 0.03 0.03 0.04 0.04 0.04 0.05 0.03 0.04 0.05 0.06 0.06 0.06 0.05
0.01 0.01 0.01 0.01 0.02 0.02 0.02 0.01 0.01 0.01 0.01 0.02 0.03 0.03 0.01 0.01 0.01 0.00 0.01 0.01 0.02 0.02 0.02 0.02 0.02 0.02 0.03 0.02 0.02 0.03 0.03 0.03 0.03 0.04 0.04 0.04 0.04 0.04 0.05 0.06 0.07 0.07 0.06 0.05
0.01 0.00 0.00 0.01 0.02 0.03 0.02 0.00 0.01 0.01 0.01 0.03 0.02 0.01 0.00 0.00 0.00 0.00 0.00 0.01 0.01 0.01 0.01 0.02 0.03 0.04 0.03 0.02 0.02 0.03 0.03 0.03 0.04 0.04 0.04 0.05 0.04 0.04 0.05 0.05 0.05 0.05 0.05 0.05
0.01 0.01 0.02 0.01 0.02 0.02 0.01 0.02 0.02 0.01 0.01 0.01 0.00 0.00 0.00 0.00 0.00 0.00 0.01 0.00 0.01 0.01 0.01 0.01 0.02 0.02 0.01 0.01 0.02 0.02 0.03 0.04 0.04 0.05 0.06 0.05 0.04 0.03 0.04 0.04 0.04 0.04 0.04 0.04
0.01 0.02 0.01 0.02 0.02 0.02 0.02 0.02 0.01 0.02 0.01 0.01 0.01 0.01 0.00 0.00 0.01 0.01 0.01 0.01 0.01 0.01 0.01 0.01 0.02 0.02 0.02 0.02 0.01 0.01 0.02 0.03 0.04 0.04 0.04 0.04 0.03 0.03 0.04 0.04 0.03 0.03 0.04 0.05
MSLP
1007.01 1007.52 1007.82 1007.89 1007.79 1007.57 1007.30 1007.03 1006.82 1006.66 1006.54 1006.46 1006.38 1006.30 1006.22 1006.18 1006.20 1006.31 1006.53 1006.86 1007.29 1007.78 1008.29 1008.78 1009.21 1009.60 1009.94 1010.27 1010.62 1011.03 1011.51 1012.08 1012.69 1013.32 1013.92 1014.44 1014.85 1015.11 1015.24 1015.26 1015.20 1015.10 1014.99 1014.91
1007.56 1007.95 1008.11 1008.08 1007.92 1007.70 1007.48 1007.30 1007.19 1007.12 1007.07 1006.99 1006.86 1006.68 1006.46 1006.24 1006.09 1006.06 1006.18 1006.47 1006.91 1007.46 1008.05 1008.64 1009.17 1009.63 1010.01 1010.34 1010.66 1011.02 1011.44 1011.95 1012.51 1013.11 1013.69 1014.20 1014.60 1014.87 1015.01 1015.03 1014.98 1014.89 1014.81 1014.76
1007.91 1008.13 1008.15 1008.03 1007.84 1007.64 1007.50 1007.45 1007.47 1007.52 1007.54 1007.49 1007.32 1007.03 1006.65 1006.25 1005.91 1005.71 1005.72 1005.95 1006.38 1006.98 1007.67 1008.37 1009.01 1009.56 1010.00 1010.35 1010.67 1010.99 1011.36 1011.80 1012.31 1012.86 1013.41 1013.90 1014.30 1014.57 1014.72 1014.76 1014.73 1014.66 1014.61 1014.59
1008.05 1008.10 1008.00 1007.80 1007.60 1007.47 1007.44 1007.54 1007.71 1007.90 1008.02 1007.99 1007.77 1007.37 1006.82 1006.23 1005.69 1005.31 1005.18 1005.32 1005.73 1006.37 1007.14 1007.94 1008.70 1009.35 1009.87 1010.28 1010.61 1010.92 1011.25 1011.65 1012.11 1012.61 1013.12 1013.59 1013.98 1014.25 1014.41 1014.46 1014.45 1014.42 1014.39 1014.40
1008.01 1007.92 1007.72 1007.49 1007.31 1007.26 1007.38 1007.64 1007.98 1008.30 1008.51 1008.50 1008.24 1007.72 1007.02 1006.22 1005.48 1004.91 1004.62 1004.65 1005.02 1005.65 1006.47 1007.37 1008.23 1008.98 1009.60 1010.07 1010.45 1010.77 1011.10 1011.47 1011.89 1012.36 1012.84 1013.29 1013.66 1013.93 1014.09 1014.15 1014.15 1014.13 1014.12 1014.15
1007.85 1007.66 1007.40 1007.16 1007.04 1007.10 1007.36 1007.78 1008.27 1008.72 1009.00 1009.02 1008.72 1008.11 1007.25 1006.28 1005.34 1004.59 1004.13 1004.04 1004.32 1004.92 1005.76 1006.70 1007.63 1008.48 1009.18 1009.74 1010.18 1010.54 1010.89 1011.26 1011.67 1012.12 1012.58 1013.01 1013.36 1013.62 1013.76 1013.82 1013.82 1013.79 1013.78 1013.81
1007.63 1007.38 1007.10 1006.89 1006.84 1007.01 1007.40 1007.96 1008.58 1009.13 1009.48 1009.52 1009.19 1008.51 1007.55 1006.43 1005.33 1004.41 1003.80 1003.57 1003.74 1004.28 1005.07 1006.02 1006.99 1007.89 1008.66 1009.29 1009.79 1010.21 1010.60 1011.00 1011.43 1011.88 1012.32 1012.74 1013.07 1013.31 1013.43 1013.47 1013.44 1013.40 1013.36 1013.37
1007.39 1007.12 1006.86 1006.71 1006.74 1007.00 1007.49 1008.15 1008.86 1009.48 1009.88 1009.94 1009.61 1008.90 1007.88 1006.69 1005.48 1004.45 1003.70 1003.34 1003.39 1003.81 1004.52 1005.41 1006.36 1007.27 1008.07 1008.75 1009.31 1009.80 1010.24 1010.68 1011.14 1011.60 1012.06 1012.46 1012.78 1012.99 1013.09 1013.09 1013.03 1012.95 1012.88 1012.86
1007.12 1006.89 1006.69 1006.60 1006.71 1007.04 1007.59 1008.30 1009.05 1009.71 1010.14 1010.23 1009.93 1009.24 1008.24 1007.04 1005.81 1004.71 1003.88 1003.40 1003.31 1003.60 1004.18 1004.95 1005.81 1006.67 1007.46 1008.15 1008.75 1009.29 1009.79 1010.29 1010.78 1011.28 1011.74 1012.15 1012.45 1012.64 1012.71 1012.68 1012.58 1012.46 1012.36 1012.31
1006.85 1006.71 1006.59 1006.58 1006.74 1007.11 1007.68 1008.38 1009.12 1009.78 1010.22 1010.35 1010.11 1009.50 1008.58 1007.46 1006.28 1005.19 1004.32 1003.75 1003.53 1003.65 1004.06 1004.66 1005.38 1006.13 1006.85 1007.52 1008.13 1008.70 1009.25 1009.79 1010.34 1010.86 1011.35 1011.77 1012.07 1012.25 1012.30 1012.25 1012.12 1011.97 1011.84 1011.76
1006.59 1006.57 1006.56 1006.63 1006.84 1007.20 1007.73 1008.38 1009.07 1009.68 1010.11 1010.28 1010.13 1009.65 1008.88 1007.90 1006.84 1005.83 1004.97 1004.34 1004.01 1003.95 1004.15 1004.55 1005.07 1005.66 1006.26 1006.86 1007.44 1008.02 1008.59 1009.18 1009.77 1010.33 1010.85 1011.28 1011.60 1011.79 1011.84 1011.78 1011.65 1011.49 1011.35 1011.27
1006.38 1006.51 1006.62 1006.77 1007.00 1007.34 1007.79 1008.33 1008.91 1009.45 1009.86 1010.06 1010.01 1009.68 1009.10 1008.31 1007.43 1006.54 1005.73 1005.08 1004.64 1004.41 1004.40 1004.56 1004.86 1005.25 1005.70 1006.18 1006.71 1007.26 1007.84 1008.45 1009.07 1009.66 1010.21 1010.67 1011.02 1011.23 1011.30 1011.27 1011.17 1011.03 1010.91 1010.84
1006.26 1006.55 1006.80 1007.02 1007.25 1007.53 1007.88 1008.29 1008.73 1009.16 1009.51 1009.73 1009.77 1009.60 1009.22 1008.66 1007.97 1007.23 1006.50 1005.85 1005.31 1004.93 1004.71 1004.64 1004.70 1004.87 1005.15 1005.50 1005.93 1006.43 1007.00 1007.61 1008.24 1008.85 1009.42 1009.91 1010.29 1010.55 1010.67 1010.70 1010.64 1010.56 1010.48 1010.45
1006.28 1006.74 1007.11 1007.39 1007.62 1007.82 1008.04 1008.29 1008.58 1008.87 1009.15 1009.37 1009.47 1009.44 1009.25 1008.90 1008.41 1007.82 1007.18 1006.54 1005.94 1005.42 1005.01 1004.72 1004.55 1004.52 1004.61 1004.83 1005.15 1005.59 1006.10 1006.69 1007.30 1007.92 1008.50 1009.01 1009.42 1009.73 1009.92 1010.02 1010.05 1010.04 1010.03 1010.05
1006.48 1007.09 1007.55 1007.88 1008.09 1008.21 1008.29 1008.38 1008.49 1008.65 1008.83 1009.02 1009.17 1009.24 1009.21 1009.03 1008.72 1008.27 1007.72 1007.10 1006.45 1005.82 1005.25 1004.77 1004.41 1004.19 1004.12 1004.20 1004.41 1004.76 1005.21 1005.74 1006.32 1006.90 1007.47 1007.98 1008.42 1008.78 1009.04 1009.22 1009.34 1009.42 1009.49 1009.57
1006.84 1007.55 1008.08 1008.43 1008.61 1008.65 1008.61 1008.54 1008.50 1008.51 1008.59 1008.73 1008.90 1009.04 1009.11 1009.08 1008.90 1008.57 1008.09 1007.49 1006.81 1006.10 1005.41 1004.79 1004.28 1003.91 1003.70 1003.66 1003.76 1004.01 1004.38 1004.84 1005.34 1005.87 1006.40 1006.89 1007.34 1007.72 1008.05 1008.31 1008.52 1008.69 1008.84 1008.98
1007.28 1008.04 1008.61 1008.96 1009.10 1009.07 1008.92 1008.73 1008.55 1008.45 1008.44 1008.52 1008.67 1008.85 1009.00 1009.05 1008.97 1008.72 1008.30 1007.73 1007.04 1006.28 1005.51 1004.80 1004.19 1003.72 1003.40 1003.26 1003.27 1003.42 1003.70 1004.06 1004.47 1004.91 1005.37 1005.81 1006.23 1006.63 1006.99 1007.32 1007.60 1007.85 1008.07 1008.25
1007.69 1008.44 1009.00 1009.33 1009.43 1009.35 1009.14 1008.86 1008.60 1008.42 1008.34 1008.38 1008.52 1008.71 1008.89 1008.99 1008.97 1008.77 1008.40 1007.85 1007.16 1006.39 1005.60 1004.84 1004.17 1003.64 1003.26 1003.04 1002.98 1003.04 1003.21 1003.46 1003.76 1004.10 1004.46 1004.82 1005.20 1005.58 1005.95 1006.31 1006.65 1006.96 1007.22 1007.44
1007.93 1008.62 1009.14 1009.43 1009.51 1009.40 1009.16 1008.86 1008.58 1008.36 1008.26 1008.29 1008.42 1008.61 1008.80 1008.93 1008.93 1008.77 1008.42 1007.90 1007.24 1006.48 1005.69 1004.93 1004.25 1003.70 1003.29 1003.03 1002.90 1002.88 1002.96 1003.10 1003.28 1003.49 1003.74 1004.01 1004.31 1004.65 1005.01 1005.38 1005.74 1006.08 1006.38 1006.61
1007.90 1008.50 1008.94 1009.19 1009.26 1009.17 1008.95 1008.69 1008.43 1008.24 1008.16 1008.20 1008.34 1008.54 1008.74 1008.87 1008.89 1008.74 1008.42 1007.93 1007.29 1006.56 1005.80 1005.07 1004.42 1003.87 1003.46 1003.18 1003.01 1002.93 1002.91 1002.95 1003.02 1003.11 1003.24 1003.42 1003.64 1003.91 1004.24 1004.59 1004.96 1005.31 1005.61 1005.85
1007.56 1008.03 1008.40 1008.62 1008.70 1008.65 1008.51 1008.32 1008.15 1008.04 1008.03 1008.11 1008.27 1008.48 1008.69 1008.82 1008.84 1008.70 1008.39 1007.92 1007.32 1006.64 1005.93 1005.24 1004.63 1004.12 1003.72 1003.43 1003.23 1003.11 1003.03 1002.98 1002.95 1002.94 1002.97 1003.05 1003.19 1003.40 1003.67 1004.00 1004.35 1004.69 1005.00 1005.23
1006.94 1007.30 1007.59 1007.79 1007.90 1007.92 1007.88 1007.82 1007.77 1007.77 1007.84 1007.99 1008.19 1008.42 1008.63 1008.76 1008.76 1008.62 1008.33 1007.88 1007.31 1006.68 1006.02 1005.39 1004.83 1004.36 1003.99 1003.71 1003.50 1003.35 1003.22 1003.11 1003.00 1002.92 1002.86 1002.86 1002.93 1003.08 1003.30 1003.59 1003.92 1004.25 1004.54 1004.77
1006.17 1006.42 1006.65 1006.85 1007.00 1007.11 1007.19 1007.25 1007.34 1007.46 1007.63 1007.85 1008.09 1008.33 1008.53 1008.65 1008.64 1008.49 1008.20 1007.77 1007.24 1006.65 1006.04 1005.47 1004.96 1004.53 1004.19 1003.93 1003.72 1003.55 1003.40 1003.24 1003.09 1002.95 1002.84 1002.78 1002.79 1002.88 1003.07 1003.32 1003.62 1003.93 1004.21 1004.44
1005.39 1005.55 1005.74 1005.95 1006.15 1006.35 1006.54 1006.73 1006.94 1007.17 1007.42 1007.69 1007.96 1008.20 1008.39 1008.47 1008.45 1008.28 1007.99 1007.58 1007.08 1006.53 1005.98 1005.45 1004.98 1004.60 1004.28 1004.03 1003.83 1003.65 1003.48 1003.31 1003.13 1002.95 1002.80 1002.70 1002.67 1002.73 1002.87 1003.09 1003.36 1003.66 1003.93 1004.17
1004.75 1004.85 1005.02 1005.24 1005.49 1005.76 1006.05 1006.34 1006.63 1006.94 1007.24 1007.53 1007.80 1008.03 1008.18 1008.24 1008.18 1008.00 1007.71 1007.31 1006.84 1006.33 1005.82 1005.33 1004.90 1004.54 1004.24 1004.00 1003.79 1003.61 1003.42 1003.23 1003.03 1002.84 1002.67 1002.54 1002.49 1002.51 1002.62 1002.81 1003.06 1003.33 1003.61 1003.85
1004.37 1004.43 1004.58 1004.81 1005.10 1005.42 1005.77 1006.12 1006.47 1006.80 1007.11 1007.40 1007.64 1007.83 1007.94 1007.96 1007.87 1007.68 1007.38 1007.00 1006.56 1006.08 1005.60 1005.14 1004.73 1004.38 1004.08 1003.83 1003.61 1003.40 1003.20 1002.99 1002.78 1002.57 1002.38 1002.24 1002.15 1002.15 1002.23 1002.39 1002.61 1002.87 1003.15 1003.41
Thickness
5864 5851 5844 5854 5863 5863 5860 5854 5854 5863 5880 5873 5860 5858 5864 5871 5869 5862 5859 5856 5852 5850 5852 5851 5848 5845 5839 5833 5827 5822 5818 5815 5812 5808 5804 5801 5798 5799 5797 5796 5793 5790 5787 5786
5848 5844 5864 5874 5874 5870 5862 5852 5853 5865 5882 5874 5862 5860 5869 5870 5869 5866 5862 5858 5855 5852 5850 5848 5847 5844 5839 5832 5827 5823 5818 5815 5813 5809 5807 5804 5802 5800 5798 5796 5794 5791 5788 5785
5840 5856 5873 5867 5862 5860 5859 5855 5858 5858 5869 5874 5860 5848 5858 5868 5875 5871 5869 5867 5861 5855 5850 5847 5845 5842 5839 5833 5828 5825 5820 5816 5813 5811 5808 5805 5801 5798 5795 5792 5790 5789 5788 5786
5848 5865 5864 5858 5856 5860 5850 5870 5870 5864 5854 5847 5852 5822 5842 5857 5860 5863 5864 5866 5863 5860 5856 5851 5846 5842 5839 5835 5832 5826 5820 5816 5813 5810 5805 5800 5795 5791 5791 5790 5789 5788 5787 5786
5845 5858 5856 5850 5860 5867 5861 5872 5866 5861 5853 5844 5851 5832 5836 5853 5849 5855 5862 5865 5867 5864 5860 5853 5849 5845 5842 5838 5832 5826 5820 5815 5812 5808 5805 5799 5796 5794 5793 5791 5788 5786 5786 5785
5854 5869 5867 5863 5872 5874 5871 5862 5858 5854 5843 5823 5841 5834 5826 5848 5851 5855 5861 5866 5868 5867 5863 5857 5852 5846 5841 5837 5832 5826 5818 5813 5811 5807 5804 5799 5795 5792 5789 5786 5784 5783 5783 5782
5839 5856 5870 5873 5857 5864 5860 5835 5814 5806 5806 5816 5848 5837 5836 5859 5867 5865 5863 5867 5870 5868 5863 5856 5849 5842 5836 5833 5829 5824 5817 5811 5809 5805 5801 5798 5795 5792 5788 5785 5782 5780 5779 5778
5822 5828 5858 5867 5858 5849 5851 5838 5809 5794 5800 5820 5840 5830 5846 5869 5873 5874 5873 5872 5870 5866 5862 5855 5847 5840 5834 5831 5827 5822 5814 5809 5806 5802 5799 5796 5793 5790 5787 5784 5782 5779 5778 5776
5827 5828 5864 5872 5873 5862 5845 5844 5854 5833 5825 5816 5823 5836 5849 5863 5862 5864 5866 5865 5861 5860 5857 5853 5846 5840 5835 5830 5826 5822 5814 5808 5804 5800 5796 5793 5790 5787 5785 5782 5780 5777 5775 5775
5840 5826 5848 5866 5868 5867 5861 5854 5845 5829 5805 5798 5812 5820 5822 5838 5843 5849 5854 5856 5856 5854 5849 5847 5845 5840 5835 5831 5826 5821 5813 5806 5802 5798 5794 5791 5787 5784 5782 5779 5776 5774 5771 5769
5845 5826 5834 5850 5843 5842 5849 5844 5838 5833 5828 5807 5796 5810 5848 5845 5847 5847 5850 5854 5852 5848 5845 5840 5840 5838 5832 5828 5823 5816 5809 5803 5798 5795 5790 5787 5783 5781 5779 5776 5773 5770 5768 5764
5841 5829 5818 5835 5859 5863 5854 5845 5839 5818 5811 5819 5809 5815 5860 5854 5852 5849 5847 5847 5847 5844 5841 5838 5835 5830 5826 5821 5816 5810 5804 5799 5795 5791 5786 5782 5780 5777 5774 5771 5768 5766 5762 5760
5831 5817 5798 5808 5828 5844 5841 5844 5845 5842 5830 5817 5807 5815 5854 5852 5848 5846 5842 5839 5837 5835 5834 5831 5827 5822 5817 5813 5808 5803 5798 5794 5790 5785 5781 5777 5774 5771 5768 5766 5764 5761 5758 5755
5826 5811 5800 5791 5806 5823 5825 5834 5838 5830 5816 5813 5818 5822 5835 5836 5835 5835 5834 5832 5830 5827 5823 5821 5817 5812 5809 5805 5800 5796 5792 5789 5784 5780 5775 5770 5768 5766 5763 5761 5758 5756 5754 5750
5818 5800 5804 5811 5824 5827 5826 5828 5832 5826 5823 5817 5822 5824 5828 5832 5831 5830 5826 5824 5820 5816 5813 5810 5806 5802 5799 5796 5792 5789 5785 5782 5778 5773 5768 5765 5763 5760 5757 5754 5751 5749 5747 5746
5808 5793 5794 5794 5811 5819 5819 5827 5829 5827 5827 5824 5822 5818 5829 5830 5826 5820 5817 5813 5809 5807 5805 5802 5798 5794 5791 5788 5784 5781 5778 5776 5772 5767 5763 5759 5756 5753 5750 5747 5745 5742 5740 5739
5794 5784 5775 5776 5797 5801 5796 5817 5822 5821 5824 5818 5807 5812 5821 5814 5810 5807 5807 5805 5801 5799 5798 5795 5791 5788 5784 5783 5779 5774 5772 5769 5765 5760 5756 5753 5749 5745 5743 5741 5738 5735 5733 5732
5785 5777 5771 5770 5772 5755 5796 5826 5825 5816 5815 5819 5813 5812 5809 5804 5805 5806 5805 5799 5794 5792 5790 5788 5786 5781 5780 5778 5775 5770 5765 5761 5757 5752 5749 5746 5743 5739 5736 5733 5730 5728 5726 5724
5792 5775 5763 5760 5757 5766 5791 5805 5809 5801 5796 5810 5806 5803 5802 5801 5796 5791 5795 5793 5788 5786 5785 5782 5781 5779 5775 5770 5766 5762 5756 5752 5747 5744 5741 5739 5735 5731 5728 5725 5723 5721 5719 5717
5784 5777 5760 5754 5744 5744 5768 5795 5808 5797 5776 5796 5797 5792 5791 5788 5770 5769 5782 5782 5780 5778 5776 5773 5772 5770 5764 5761 5757 5751 5747 5743 5738 5735 5733 5731 5728 5724 5721 5718 5716 5715 5712 5710
5756 5755 5750 5747 5743 5752 5772 5789 5792 5760 5755 5782 5786 5783 5780 5772 5767 5769 5772 5770 5768 5767 5765 5764 5761 5756 5753 5750 5746 5739 5736 5733 5732 5729 5726 5723 5720 5717 5715 5712 5709 5707 5704 5702
5747 5742 5741 5741 5732 5733 5767 5772 5759 5756 5770 5773 5773 5772 5767 5764 5764 5762 5758 5757 5756 5754 5753 5751 5747 5743 5742 5740 5735 5729 5726 5726 5724 5720 5717 5713 5711 5710 5708 5704 5701 5700 5696 5693
5747 5745 5745 5741 5736 5748 5758 5757 5762 5764 5760 5761 5760 5759 5757 5753 5750 5749 5747 5745 5744 5742 5741 5740 5736 5732 5730 5728 5725 5718 5717 5717 5714 5710 5706 5704 5702 5700 5698 5695 5693 5691 5688 5685
5744 5750 5741 5734 5738 5744 5748 5752 5754 5754 5752 5753 5751 5749 5747 5743 5741 5738 5736 5733 5731 5730 5729 5728 5724 5719 5715 5715 5715 5711 5708 5706 5703 5699 5697 5695 5693 5691 5690 5687 5685 5682 5679 5676
5730 5733 5727 5722 5729 5733 5736 5739 5741 5743 5744 5742 5740 5740 5737 5734 5730 5727 5724 5722 5720 5719 5717 5716 5712 5709 5706 5706 5704 5702 5700 5697 5693 5690 5689 5687 5685 5683 5680 5678 5675 5673 5670 5667
5724 5720 5714 5711 5719 5718 5720 5729 5732 5729 5728 5728 5726 5725 5726 5724 5719 5717 5714 5712 5710 5707 5706 5704 5702 5699 5697 5696 5694 5692 5691 5688 5684 5681 5679 5678 5677 5674 5672 5668 5665 5663 5661 5658